FW4770 Weather Reports


time (UTC)temp
F
wind
direction
speed
knots
gust
knots
rain 1hr
in
rain 24hr
in
rain mn
in
humidity
%
barometer
mb
20260503211217 69 343 7.0 13.0 0.00 0.00 0.00 31 1005.9
20260503211142 69 343 7.8 13.0 0.00 0.00 0.00 28 1005.9
20260503211009 69 360 7.8 13.9 0.00 0.00 0.00 30 1005.9
20260503210914 69 323 7.0 13.9 0.00 0.00 0.00 29 1005.9
20260503210838 69 360 7.8 18.2 0.00 0.00 0.00 28 1005.9
20260503210722 69 311 7.8 18.2 0.00 0.00 0.00 29 1005.9
20260503210626 69 290 7.8 18.2 0.00 0.00 0.00 30 1005.9
20260503210509 69 331 8.7 18.2 0.00 0.00 0.00 31 1005.9
20260503210412 69 320 7.8 18.2 0.00 0.00 0.00 29 1005.9
20260503210321 69 31 7.8 18.2 0.00 0.00 0.00 30 1005.9
20260503210206 69 55 10.4 18.2 0.00 0.00 0.00 28 1006.0
20260503210111 69 25 9.6 18.2 0.00 0.00 0.00 28 1006.0
20260503210016 69 348 7.8 18.2 0.00 0.00 0.00 29 1006.0
20260503205920 69 20 7.8 14.8 0.00 0.00 0.00 28 1005.9
20260503205824 69 300 8.7 14.8 0.00 0.00 0.00 29 1006.0
20260503205752 69 326 9.6 14.8 0.00 0.00 0.00 31 1006.0
20260503205607 69 306 10.4 14.8 0.00 0.00 0.00 31 1006.0
20260503205512 69 360 9.6 14.8 0.00 0.00 0.00 30 1005.9
20260503205415 69 321 9.6 14.8 0.00 0.00 0.00 28 1005.9
20260503205320 70 294 9.6 14.8 0.00 0.00 0.00 29 1005.9
20260503205223 70 301 9.6 14.8 0.00 0.00 0.00 30 1006.1
20260503205111 69 314 7.8 15.6 0.00 0.00 0.00 32 1006.0
20260503205016 69 5 7.0 15.6 0.00 0.00 0.00 32 1006.1
20260503204920 69 308 7.8 15.6 0.00 0.00 0.00 34 1006.0
20260503204805 69 333 10.4 15.6 0.00 0.00 0.00 28 1006.1
20260503204709 69 5 10.4 15.6 0.00 0.00 0.00 28 1006.2
20260503204614 69 355 10.4 15.6 0.00 0.00 0.00 30 1006.2
20260503204521 69 342 10.4 15.6 0.00 0.00 0.00 28 1006.0
20260503204406 69 303 10.4 15.6 0.00 0.00 0.00 29 1006.0
20260503204310 69 322 10.4 15.6 0.00 0.00 0.00 28 1006.0
20260503204214 69 305 7.8 20.0 0.00 0.00 0.00 30 1006.1
20260503204118 69 330 7.0 20.0 0.00 0.00 0.00 28 1006.1
20260503204021 69 349 7.0 20.9 0.00 0.00 0.00 29 1006.1
20260503203928 69 343 7.0 20.9 0.00 0.00 0.00 29 1006.1
20260503203805 69 348 8.7 20.9 0.00 0.00 0.00 28 1006.1
20260503203709 69 334 10.4 20.9 0.00 0.00 0.00 29 1006.1
20260503203614 69 331 11.3 20.9 0.00 0.00 0.00 31 1006.1
20260503203519 69 340 11.3 20.9 0.00 0.00 0.00 29 1006.1
20260503203424 69 355 11.3 20.9 0.00 0.00 0.00 30 1006.0
20260503203311 69 298 12.2 20.9 0.00 0.00 0.00 30 1006.0
20260503203236 69 308 9.6 20.9 0.00 0.00 0.00 28 1006.0
20260503203120 69 298 7.8 15.6 0.00 0.00 0.00 29 1006.0
20260503203005 69 355 7.8 15.6 0.00 0.00 0.00 27 1006.1
20260503202929 69 350 9.6 15.6 0.00 0.00 0.00 27 1006.2
20260503202812 69 5 10.4 15.6 0.00 0.00 0.00 29 1006.2
20260503202737 69 355 11.3 15.6 0.00 0.00 0.00 28 1006.3
20260503202624 69 348 11.3 15.6 0.00 0.00 0.00 31 1006.0
20260503202508 69 338 10.4 14.8 0.00 0.00 0.00 28 1006.2
20260503202411 69 355 9.6 13.9 0.00 0.00 0.00 30 1006.1
20260503202315 69 9 8.7 13.9 0.00 0.00 0.00 28 1006.1
20260503202239 69 23 7.0 13.9 0.00 0.00 0.00 29 1006.1
20260503202122 69 14 6.1 13.0 0.00 0.00 0.00 29 1006.2
20260503202010 69 5 7.8 13.0 0.00 0.00 0.00 28 1006.1
20260503201915 69 346 8.7 13.0 0.00 0.00 0.00 29 1006.2
20260503201818 69 9 7.8 13.0 0.00 0.00 0.00 28 1006.2
20260503201722 70 26 7.8 12.2 0.00 0.00 0.00 30 1006.2
20260503201606 69 12 8.7 12.2 0.00 0.00 0.00 29 1006.2
20260503201530 69 33 7.8 12.2 0.00 0.00 0.00 32 1006.3
20260503201414 69 360 7.8 11.3 0.00 0.00 0.00 31 1006.3
20260503201322 69 328 7.8 11.3 0.00 0.00 0.00 29 1006.2
20260503201226 69 360 7.0 12.2 0.00 0.00 0.00 30 1006.2
20260503201109 69 11 7.0 12.2 0.00 0.00 0.00 28 1006.2
20260503201014 69 23 7.0 14.8 0.00 0.00 0.00 28 1006.2
20260503200919 69 43 7.0 14.8 0.00 0.00 0.00 29 1006.3
20260503200823 69 5 5.2 14.8 0.00 0.00 0.00 28 1006.2
20260503200731 69 14 4.3 14.8 0.00 0.00 0.00 30 1006.2
20260503200614 69 313 5.2 14.8 0.00 0.00 0.00 32 1006.2
20260503200519 69 360 7.0 14.8 0.00 0.00 0.00 30 1006.2
20260503200422 69 50 7.8 14.8 0.00 0.00 0.00 30 1006.3
20260503200327 70 53 7.0 14.8 0.00 0.00 0.00 30 1006.3
20260503200229 69 346 5.2 14.8 0.00 0.00 0.00 34 1006.3
20260503200133 69 285 4.3 12.2 0.00 0.00 0.00 32 1006.2
20260503200015 69 329 6.1 12.2 0.00 0.00 0.00 31 1006.3
20260503195923 69 339 5.2 12.2 0.00 0.00 0.00 30 1006.3
20260503195807 69 339 5.2 18.2 0.00 0.00 0.00 31 1006.3
20260503195732 69 304 6.1 18.2 0.00 0.00 0.00 30 1006.3
20260503195615 69 333 7.0 18.2 0.00 0.00 0.00 30 1006.3
20260503195520 69 329 7.8 18.2 0.00 0.00 0.00 30 1006.3
20260503195405 69 344 7.8 18.2 0.00 0.00 0.00 29 1006.4
20260503195329 69 355 7.8 18.2 0.00 0.00 0.00 31 1006.4
20260503195216 69 347 7.8 18.2 0.00 0.00 0.00 31 1006.3
20260503195140 69 360 9.6 18.2 0.00 0.00 0.00 33 1006.4
20260503195004 69 321 8.7 18.2 0.00 0.00 0.00 33 1006.3
20260503194909 69 329 7.0 14.8 0.00 0.00 0.00 33 1006.3
20260503194833 69 299 6.1 14.8 0.00 0.00 0.00 37 1006.3
20260503194716 69 308 7.0 15.6 0.00 0.00 0.00 35 1006.4
20260503194619 69 330 7.8 15.6 0.00 0.00 0.00 33 1006.3
20260503194507 69 337 8.7 15.6 0.00 0.00 0.00 36 1006.3
20260503194412 70 303 7.0 15.6 0.00 0.00 0.00 37 1006.3
20260503194316 70 331 7.0 15.6 0.00 0.00 0.00 35 1006.4
20260503194241 70 300 9.6 15.6 0.00 0.00 0.00 31 1006.3
20260503194104 70 351 8.7 15.6 0.00 0.00 0.00 32 1006.4
20260503194008 69 348 7.8 15.6 0.00 0.00 0.00 36 1006.3
20260503193917 69 355 7.8 15.6 0.00 0.00 0.00 37 1006.4
20260503193821 69 9 5.2 15.6 0.00 0.00 0.00 35 1006.3
20260503193706 69 5 5.2 10.4 0.00 0.00 0.00 34 1006.3
20260503193630 69 331 7.0 10.4 0.00 0.00 0.00 32 1006.3
20260503193507 69 12 7.8 10.4 0.00 0.00 0.00 31 1006.4
20260503193411 69 328 7.0 10.4 0.00 0.00 0.00 32 1006.4
20260503193319 69 5 7.0 12.2 0.00 0.00 0.00 33 1006.3
20260503193223 69 25 7.0 12.2 0.00 0.00 0.00 32 1006.4
20260503193107 70 32 6.1 12.2 0.00 0.00 0.00 32 1006.4
20260503193030 70 360 5.2 12.2 0.00 0.00 0.00 31 1006.4
20260503192912 69 28 5.2 13.9 0.00 0.00 0.00 32 1006.5
20260503192817 69 30 7.8 13.9 0.00 0.00 0.00 31 1006.5
20260503192705 69 5 7.8 14.8 0.00 0.00 0.00 32 1006.6
20260503192631 69 350 8.7 14.8 0.00 0.00 0.00 32 1006.5
20260503192506 69 339 7.0 17.4 0.00 0.00 0.00 31 1006.5
20260503192411 69 328 6.1 17.4 0.00 0.00 0.00 33 1006.6
20260503192314 69 312 6.1 17.4 0.00 0.00 0.00 31 1006.6
20260503192238 69 335 7.8 17.4 0.00 0.00 0.00 32 1006.6
20260503192121 69 312 10.4 17.4 0.00 0.00 0.00 30 1006.7
20260503192009 69 334 11.3 17.4 0.00 0.00 0.00 29 1006.7
20260503191913 69 26 10.4 17.4 0.00 0.00 0.00 31 1006.8
20260503191817 69 349 10.4 17.4 0.00 0.00 0.00 30 1006.7
20260503191722 69 5 10.4 17.4 0.00 0.00 0.00 32 1006.8
20260503191607 69 5 9.6 15.6 0.00 0.00 0.00 32 1006.8
20260503191532 69 360 9.6 16.5 0.00 0.00 0.00 29 1006.8
20260503191419 69 360 9.6 16.5 0.00 0.00 0.00 29 1006.8
20260503191323 69 331 9.6 16.5 0.00 0.00 0.00 30 1006.7
20260503191228 69 25 10.4 16.5 0.00 0.00 0.00 29 1006.8
20260503191131 69 329 11.3 16.5 0.00 0.00 0.00 29 1006.7
20260503191035 69 350 11.3 16.5 0.00 0.00 0.00 30 1006.7
20260503190919 69 360 9.6 16.5 0.00 0.00 0.00 30 1006.7
20260503190843 69 341 11.3 16.5 0.00 0.00 0.00 28 1006.9
20260503190725 69 338 9.6 15.6 0.00 0.00 0.00 31 1006.7
20260503190612 69 360 7.8 14.8 0.00 0.00 0.00 32 1006.9
20260503190516 69 10 7.8 14.8 0.00 0.00 0.00 30 1006.8
20260503190421 69 5 8.7 14.8 0.00 0.00 0.00 32 1006.6
20260503190325 69 20 9.6 14.8 0.00 0.00 0.00 33 1006.8
20260503190249 69 355 10.4 17.4 0.00 0.00 0.00 31 1007.0
20260503190105 69 26 8.7 17.4 0.00 0.00 0.00 31 1006.8
20260503190009 69 309 9.6 17.4 0.00 0.00 0.00 31 1006.7
20260503185918 69 9 10.4 17.4 0.00 0.00 0.00 30 1006.7
20260503185819 69 345 9.6 17.4 0.00 0.00 0.00 31 1006.8
20260503185704 69 347 8.7 17.4 0.00 0.00 0.00 31 1006.9
20260503185609 69 15 9.6 17.4 0.00 0.00 0.00 33 1006.8
20260503185514 69 355 10.4 17.4 0.00 0.00 0.00 33 1006.9
20260503185417 69 343 8.7 17.4 0.00 0.00 0.00 33 1006.8
20260503185344 69 331 8.7 13.9 0.00 0.00 0.00 33 1006.8
20260503185228 69 344 8.7 13.9 0.00 0.00 0.00 31 1006.9
20260503185130 69 348 7.0 13.9 0.00 0.00 0.00 34 1006.7
20260503185014 68 355 4.3 13.9 0.00 0.00 0.00 34 1006.7
20260503184919 68 17 5.2 14.8 0.00 0.00 0.00 35 1006.7
20260503184805 68 300 8.7 14.8 0.00 0.00 0.00 31 1006.8
20260503184709 69 346 9.6 14.8 0.00 0.00 0.00 30 1006.7
20260503184618 69 331 9.6 14.8 0.00 0.00 0.00 32 1006.8
20260503184504 69 355 10.4 14.8 0.00 0.00 0.00 33 1006.7
20260503184430 69 329 10.4 14.8 0.00 0.00 0.00 34 1006.8
20260503184313 69 344 8.7 14.8 0.00 0.00 0.00 33 1006.8
20260503184216 68 348 8.7 16.5 0.00 0.00 0.00 34 1006.8
20260503184138 68 314 8.7 16.5 0.00 0.00 0.00 32 1006.8
20260503184006 68 340 7.8 16.5 0.00 0.00 0.00 33 1006.7
20260503183912 68 10 8.7 16.5 0.00 0.00 0.00 33 1006.8
20260503183816 68 5 7.8 16.5 0.00 0.00 0.00 33 1006.8
20260503183741 68 5 5.2 16.5 0.00 0.00 0.00 35 1006.8
20260503183605 68 20 7.8 16.5 0.00 0.00 0.00 33 1006.9
20260503183510 68 44 10.4 16.5 0.00 0.00 0.00 34 1007.0
20260503183324 68 360 5.2 15.6 0.00 0.00 0.00 32 1006.9
20260503183207 68 44 8.7 15.6 0.00 0.00 0.00 33 1007.0
20260503183112 68 12 7.8 15.6 0.00 0.00 0.00 31 1006.8
20260503183036 68 22 7.8 15.6 0.00 0.00 0.00 33 1006.8
20260503182919 68 49 8.7 15.6 0.00 0.00 0.00 33 1006.8
20260503182843 68 24 9.6 15.6 0.00 0.00 0.00 33 1006.9
20260503182727 68 18 8.7 15.6 0.00 0.00 0.00 36 1007.0
20260503182613 68 22 7.8 15.6 0.00 0.00 0.00 34 1006.9
20260503182517 68 42 8.7 15.6 0.00 0.00 0.00 35 1007.0
20260503182422 68 14 7.8 15.6 0.00 0.00 0.00 34 1006.9
20260503182326 68 5 7.0 15.6 0.00 0.00 0.00 35 1006.9
20260503182208 68 346 7.0 15.6 0.00 0.00 0.00 36 1006.9
20260503182114 68 61 8.7 15.6 0.00 0.00 0.00 36 1007.0
20260503182038 68 13 9.6 15.6 0.00 0.00 0.00 33 1007.1
20260503181905 68 32 10.4 18.2 0.00 0.00 0.00 35 1007.1
20260503181809 68 34 10.4 18.2 0.00 0.00 0.00 36 1007.6
20260503181713 68 344 10.4 18.2 0.00 0.00 0.00 36 1007.0
20260503181617 68 47 8.7 18.2 0.00 0.00 0.00 37 1007.1
20260503181520 68 26 7.8 18.2 0.00 0.00 0.00 38 1007.3
20260503181410 68 15 8.7 18.2 0.00 0.00 0.00 37 1007.2
20260503181313 68 344 10.4 18.2 0.00 0.00 0.00 35 1007.1
20260503181217 68 360 12.2 18.2 0.00 0.00 0.00 35 1007.2
20260503181122 68 5 12.2 18.2 0.00 0.00 0.00 34 1007.2
20260503181006 68 360 12.2 18.2 0.00 0.00 0.00 35 1007.2
20260503180910 68 355 13.0 18.2 0.00 0.00 0.00 35 1007.1
20260503180834 68 360 11.3 18.2 0.00 0.00 0.00 36 1007.0
20260503180741 68 340 8.7 18.2 0.00 0.00 0.00 37 1007.4
20260503180604 68 338 7.0 13.9 0.00 0.00 0.00 39 1007.0
20260503180528 68 331 7.8 13.9 0.00 0.00 0.00 39 1007.0
20260503180411 68 25 9.6 13.9 0.00 0.00 0.00 41 1007.2
20260503180316 68 347 10.4 13.9 0.00 0.00 0.00 40 1007.1
20260503180221 68 349 8.7 13.0 0.00 0.00 0.00 43 1007.0
20260503180145 68 39 9.6 13.0 0.00 0.00 0.00 41 1007.0
20260503180031 68 350 10.4 13.0 0.00 0.00 0.00 41 1007.4
20260503175906 68 21 8.7 13.0 0.00 0.00 0.00 44 1007.0
20260503175811 68 5 7.8 11.3 0.00 0.00 0.00 44 1007.0
20260503175715 68 360 5.2 11.3 0.00 0.00 0.00 45 1007.1
20260503175640 68 331 5.2 11.3 0.00 0.00 0.00 44 1007.0
20260503175504 68 338 5.2 11.3 0.00 0.00 0.00 44 1006.9
20260503175412 68 249 5.2 11.3 0.00 0.00 0.00 43 1006.9
20260503175337 68 360 5.2 13.9 0.00 0.00 0.00 46 1007.0
20260503175220 68 330 7.0 13.9 0.00 0.00 0.00 44 1007.1
20260503175104 67 333 7.0 13.9 0.00 0.00 0.00 45 1007.1
20260503175028 67 42 6.1 13.9 0.00 0.00 0.00 44 1007.0
20260503174911 67 39 6.1 13.9 0.00 0.00 0.00 44 1007.3
20260503174817 67 76 5.2 13.9 0.00 0.00 0.00 44 1007.1
20260503174705 67 30 7.8 13.9 0.00 0.00 0.00 43 1007.2
20260503174629 67 355 9.6 13.9 0.00 0.00 0.00 43 1007.2
20260503174507 67 334 6.1 13.0 0.00 0.00 0.00 44 1007.0
20260503174410 67 77 4.3 11.3 0.00 0.00 0.00 42 1007.1
20260503174316 68 44 4.3 11.3 0.00 0.00 0.00 43 1007.1
20260503174240 68 32 5.2 11.3 0.00 0.00 0.00 43 1007.0
20260503174142 68 26 7.0 11.3 0.00 0.00 0.00 48 1007.2
20260503174010 68 360 7.0 13.0 0.00 0.00 0.00 46 1007.2
20260503173914 67 32 5.2 13.0 0.00 0.00 0.00 46 1007.1
20260503173818 67 355 4.3 13.0 0.00 0.00 0.00 44 1007.1
20260503173722 67 9 5.2 13.9 0.00 0.00 0.00 45 1007.1
20260503173626 67 320 7.0 13.9 0.00 0.00 0.00 44 1007.1
20260503173551 67 342 6.1 13.9 0.00 0.00 0.00 47 1007.2
20260503173407 67 345 6.1 13.9 0.00 0.00 0.00 45 1007.1
20260503173315 67 51 7.8 13.9 0.00 0.00 0.00 43 1007.2
20260503173220 67 42 7.0 13.9 0.00 0.00 0.00 42 1007.3
20260503173123 67 5 6.1 13.9 0.00 0.00 0.00 45 1007.3
20260503173005 67 5 9.6 13.9 0.00 0.00 0.00 42 1007.3
20260503172909 67 18 10.4 13.9 0.00 0.00 0.00 42 1007.3
20260503172815 67 26 8.7 13.9 0.00 0.00 0.00 46 1007.6
20260503172723 67 42 6.1 12.2 0.00 0.00 0.00 46 1007.3
20260503172628 67 32 5.2 13.0 0.00 0.00 0.00 48 1007.3
20260503172512 67 38 6.1 14.8 0.00 0.00 0.00 46 1007.4
20260503172417 67 17 7.0 14.8 0.00 0.00 0.00 45 1007.5
20260503172322 67 48 7.8 14.8 0.00 0.00 0.00 45 1007.5
20260503172207 67 28 7.8 14.8 0.00 0.00 0.00 44 1007.5
20260503172116 67 29 7.0 14.8 0.00 0.00 0.00 45 1007.4
20260503172022 66 44 7.8 14.8 0.00 0.00 0.00 42 1007.5
20260503171907 66 30 9.6 14.8 0.00 0.00 0.00 43 1007.6
20260503171812 66 32 10.4 14.8 0.00 0.00 0.00 45 1007.5
20260503171718 66 345 10.4 14.8 0.00 0.00 0.00 45 1007.7
20260503171622 66 76 8.7 13.0 0.00 0.00 0.00 44 1007.5
20260503171512 66 51 9.6 13.0 0.00 0.00 0.00 46 1007.4
20260503171418 66 26 8.7 13.0 0.00 0.00 0.00 45 1007.6
20260503171304 66 39 7.0 13.0 0.00 0.00 0.00 45 1007.5
20260503171210 66 55 7.0 13.0 0.00 0.00 0.00 44 1007.5
20260503171113 66 51 7.8 13.0 0.00 0.00 0.00 45 1007.5
20260503171004 66 38 9.6 13.0 0.00 0.00 0.00 45 1007.5
20260503170908 66 40 9.6 13.0 0.00 0.00 0.00 43 1007.7
20260503170814 66 41 9.6 13.0 0.00 0.00 0.00 43 1007.4
20260503170719 66 40 8.7 13.0 0.00 0.00 0.00 44 1007.5
20260503170603 66 32 7.0 14.8 0.00 0.00 0.00 45 1007.5
20260503170507 66 26 6.1 14.8 0.00 0.00 0.00 46 1007.5
20260503170431 66 340 8.7 14.8 0.00 0.00 0.00 44 1007.5
20260503170339 66 44 9.6 14.8 0.00 0.00 0.00 44 1007.6
20260503170220 66 24 8.7 14.8 0.00 0.00 0.00 43 1007.5
20260503170124 66 64 9.6 14.8 0.00 0.00 0.00 44 1007.7
20260503160118 65 355 7.8 14.8 0.00 0.00 0.00 50 1007.3
20260503150948 63 46 8.7 14.8 0.00 0.00 0.00 53 1007.2
20260503150804 62 59 8.7 18.2 0.00 0.00 0.00 53 1007.4
20260503150706 62 38 9.6 18.2 0.00 0.00 0.00 52 1007.1
20260503150631 62 69 9.6 18.2 0.00 0.00 0.00 51 1007.3
20260503150513 62 78 9.6 18.2 0.00 0.00 0.00 50 1007.3
20260503150417 62 47 9.6 18.2 0.00 0.00 0.00 50 1007.3
20260503150318 62 68 9.6 18.2 0.00 0.00 0.00 51 1007.3
20260503150206 62 40 11.3 18.2 0.00 0.00 0.00 50 1007.2
20260503150109 62 41 12.2 18.2 0.00 0.00 0.00 50 1007.4
20260503140250 59 35 13.0 17.4 0.00 0.00 0.00 56 1007.0
20260503140105 59 86 11.3 14.8 0.00 0.00 0.00 56 1007.0
20260503131408 57 41 3.5 10.4 0.00 0.00 0.00 57 1006.4
20260503131312 57 360 3.5 10.4 0.00 0.00 0.00 57 1006.4
20260503131236 57 26 3.5 10.4 0.00 0.00 0.00 56 1006.4
20260503131122 57 43 6.1 10.4 0.00 0.00 0.00 57 1006.5
20260503131046 57 27 7.0 10.4 0.00 0.00 0.00 56 1006.5
20260503130950 57 36 6.1 10.4 0.00 0.00 0.00 57 1006.4
20260503130806 57 360 4.3 7.8 0.00 0.00 0.00 57 1006.4
20260503130709 57 13 3.5 7.8 0.00 0.00 0.00 56 1006.5
20260503130614 57 47 3.5 7.8 0.00 0.00 0.00 56 1006.4
20260503130518 57 355 4.3 7.8 0.00 0.00 0.00 56 1006.3
20260503130406 56 355 4.3 7.8 0.00 0.00 0.00 56 1006.3
20260503130310 56 21 4.3 7.8 0.00 0.00 0.00 56 1006.3
20260503130215 56 5 4.3 7.8 0.00 0.00 0.00 56 1006.4
20260503130140 56 9 5.2 7.8 0.00 0.00 0.00 56 1006.4
20260503120111 50 242 0.0 0.0 0.00 0.00 0.00 66 1005.7
20260503110828 53 242 0.9 2.6 0.00 0.00 0.00 55 1005.0
20260503110715 53 242 0.9 2.6 0.00 0.00 0.00 55 1005.0
20260503110621 53 242 1.7 2.6 0.00 0.00 0.00 55 1005.0
20260503110504 53 242 0.9 2.6 0.00 0.00 0.00 55 1005.0
20260503110429 53 242 0.9 2.6 0.00 0.00 0.00 55 1005.0
20260503110305 53 242 0.9 2.6 0.00 0.00 0.00 55 1005.0
20260503110208 54 242 0.9 2.6 0.00 0.00 0.00 55 1005.0
20260503110116 54 242 1.7 3.5 0.00 0.00 0.00 55 1005.0
20260503100231 57 258 6.1 10.4 0.00 0.00 0.00 50 1005.2
20260503100118 57 279 6.1 10.4 0.00 0.00 0.00 50 1005.1
20260503090507 58 232 2.6 9.6 0.00 0.00 0.00 51 1005.4
20260503090415 58 257 2.6 9.6 0.00 0.00 0.00 51 1005.4
20260503090319 58 244 2.6 9.6 0.00 0.00 0.00 51 1005.4
20260503090205 58 253 4.3 9.6 0.00 0.00 0.00 51 1005.5
20260503090128 58 271 5.2 9.6 0.00 0.00 0.00 51 1005.4
20260503081608 58 222 5.2 12.2 0.00 0.00 0.00 55 1005.6
20260503081531 58 231 7.0 12.2 0.00 0.00 0.00 55 1005.7
20260503081414 58 231 7.0 12.2 0.00 0.00 0.00 55 1005.6
20260503081316 58 264 5.2 12.2 0.00 0.00 0.00 55 1005.6
20260503081219 58 225 3.5 12.2 0.00 0.00 0.00 55 1005.7
20260503081107 58 246 4.3 12.2 0.00 0.00 0.00 55 1005.7
20260503081009 58 252 4.3 12.2 0.00 0.00 0.00 55 1005.7
20260503080912 58 270 5.2 12.2 0.00 0.00 0.00 55 1005.7
20260503080815 58 245 5.2 12.2 0.00 0.00 0.00 55 1005.6
20260503080718 58 232 3.5 7.0 0.00 0.00 0.00 55 1005.7
20260503080641 58 221 2.6 7.8 0.00 0.00 0.00 55 1005.8
20260503080504 58 217 3.5 7.8 0.00 0.00 0.00 55 1005.8
20260503080411 58 240 4.3 7.8 0.00 0.00 0.00 55 1005.8
20260503080314 58 251 3.5 7.8 0.00 0.00 0.00 55 1005.7
20260503080218 58 238 3.5 7.8 0.00 0.00 0.00 55 1005.8
20260503080121 58 251 3.5 7.8 0.00 0.00 0.00 55 1005.8
20260503072926 58 221 4.3 7.8 0.00 0.00 0.00 55 1006.0
20260503072829 58 231 5.2 7.8 0.00 0.00 0.00 55 1006.1
20260503072704 58 248 4.3 7.8 0.00 0.00 0.00 56 1006.0
20260503072627 58 257 3.5 7.0 0.00 0.00 0.00 56 1006.1
20260503072550 58 271 3.5 7.0 0.00 0.00 0.00 56 1006.2
20260503072405 58 240 3.5 7.0 0.00 0.00 0.00 56 1006.1
20260503072314 58 212 3.5 7.0 0.00 0.00 0.00 56 1006.2
20260503072239 58 245 4.3 7.0 0.00 0.00 0.00 56 1006.2
20260503072121 58 228 4.3 7.0 0.00 0.00 0.00 56 1006.2
20260503072006 57 235 4.3 7.0 0.00 0.00 0.00 56 1006.2
20260503071930 57 244 3.5 7.0 0.00 0.00 0.00 56 1006.2
20260503071806 57 216 3.5 7.0 0.00 0.00 0.00 56 1006.2
20260503071710 57 209 3.5 7.0 0.00 0.00 0.00 56 1006.2
20260503071619 57 217 3.5 7.0 0.00 0.00 0.00 56 1006.2
20260503071522 57 219 4.3 7.0 0.00 0.00 0.00 56 1006.2
20260503071427 57 239 3.5 7.8 0.00 0.00 0.00 57 1006.3
20260503071309 57 234 3.5 7.8 0.00 0.00 0.00 56 1006.3
20260503071214 57 234 3.5 7.8 0.00 0.00 0.00 56 1006.3
20260503071119 57 224 2.6 7.8 0.00 0.00 0.00 56 1006.3
20260503071041 57 217 2.6 7.8 0.00 0.00 0.00 56 1006.3
20260503070909 57 208 2.6 7.8 0.00 0.00 0.00 56 1006.3
20260503070813 57 212 2.6 7.8 0.00 0.00 0.00 56 1006.4
20260503070736 57 215 2.6 7.8 0.00 0.00 0.00 56 1006.3
20260503070620 57 225 1.7 7.8 0.00 0.00 0.00 56 1006.4
20260503070545 57 227 2.6 7.8 0.00 0.00 0.00 56 1006.4
20260503070448 57 231 2.6 7.8 0.00 0.00 0.00 56 1006.6
20260503070304 57 217 2.6 7.8 0.00 0.00 0.00 56 1006.6
20260503070212 57 194 3.5 7.8 0.00 0.00 0.00 56 1006.6
20260503070117 57 192 4.3 7.8 0.00 0.00 0.00 55 1006.6
20260503060311 58 219 5.2 8.7 0.00 0.00 0.00 51 1007.4
20260503060235 58 209 5.2 8.7 0.00 0.00 0.00 51 1007.4
20260503060103 58 215 3.5 7.0 0.00 0.00 0.00 51 1007.5
20260503055126 58 227 3.5 9.6 0.00 0.00 0.00 50 1007.7
20260503055010 58 211 4.3 9.6 0.00 0.00 0.00 50 1007.8
20260503054933 58 242 5.2 9.6 0.00 0.00 0.00 50 1007.7
20260503054819 58 229 5.2 9.6 0.00 0.00 0.00 50 1007.8
20260503054704 58 241 3.5 9.6 0.00 0.00 0.00 50 1007.9
20260503054629 58 219 2.6 8.7 0.00 0.00 0.00 50 1007.8
20260503054505 58 223 2.6 8.7 0.00 0.00 0.00 50 1007.8
20260503054429 58 231 4.3 9.6 0.00 0.00 0.00 51 1007.9
20260503054306 58 202 4.3 9.6 0.00 0.00 0.00 50 1007.9
20260503054215 58 240 4.3 9.6 0.00 0.00 0.00 51 1007.9
20260503054118 58 217 5.2 9.6 0.00 0.00 0.00 50 1007.8
20260503054018 58 183 5.2 9.6 0.00 0.00 0.00 50 1007.8
20260503053904 58 198 4.3 9.6 0.00 0.00 0.00 50 1007.9
20260503053827 58 227 4.3 9.6 0.00 0.00 0.00 51 1007.9
20260503053710 58 231 5.2 9.6 0.00 0.00 0.00 51 1008.0
20260503053615 58 201 6.1 9.6 0.00 0.00 0.00 50 1008.0
20260503053522 58 244 4.3 9.6 0.00 0.00 0.00 51 1007.9
20260503053425 58 241 3.5 9.6 0.00 0.00 0.00 51 1008.0
20260503053303 58 251 2.6 9.6 0.00 0.00 0.00 51 1008.0
20260503053207 58 221 4.3 9.6 0.00 0.00 0.00 51 1008.0
20260503053111 58 220 6.1 9.6 0.00 0.00 0.00 50 1007.9
20260503053015 58 242 6.1 9.6 0.00 0.00 0.00 50 1008.0
20260503052944 58 232 5.2 9.6 0.00 0.00 0.00 51 1008.0
20260503052847 58 248 3.5 9.6 0.00 0.00 0.00 52 1008.0
20260503052703 58 245 4.3 9.6 0.00 0.00 0.00 51 1008.0
20260503052608 58 247 4.3 9.6 0.00 0.00 0.00 51 1008.0
20260503052531 58 223 5.2 9.6 0.00 0.00 0.00 51 1007.9
20260503052414 58 235 4.3 9.6 0.00 0.00 0.00 51 1007.9
20260503052338 58 234 4.3 8.7 0.00 0.00 0.00 51 1007.9
20260503052204 58 214 4.3 8.7 0.00 0.00 0.00 52 1007.9
20260503052108 58 227 3.5 7.0 0.00 0.00 0.00 52 1007.8
20260503052012 58 235 3.5 7.8 0.00 0.00 0.00 51 1007.9
20260503051917 58 229 4.3 7.8 0.00 0.00 0.00 52 1007.9
20260503051819 58 220 4.3 7.8 0.00 0.00 0.00 52 1007.9
20260503051723 58 254 4.3 7.8 0.00 0.00 0.00 52 1008.0
20260503051611 58 232 4.3 7.8 0.00 0.00 0.00 52 1007.9
20260503051514 58 214 3.5 7.8 0.00 0.00 0.00 52 1007.9
20260503051418 58 234 3.5 7.8 0.00 0.00 0.00 52 1007.9
20260503051322 58 206 4.3 7.8 0.00 0.00 0.00 52 1007.9
20260503051227 58 206 5.2 7.8 0.00 0.00 0.00 52 1007.9
20260503051130 58 197 4.3 7.8 0.00 0.00 0.00 51 1007.9
20260503051012 58 193 5.2 7.8 0.00 0.00 0.00 51 1007.9
20260503050920 58 190 4.3 7.8 0.00 0.00 0.00 51 1007.9
20260503050824 58 202 4.3 7.8 0.00 0.00 0.00 51 1007.9
20260503050748 58 198 4.3 6.1 0.00 0.00 0.00 51 1008.0
20260503050603 58 199 3.5 6.1 0.00 0.00 0.00 51 1008.0
20260503050527 58 198 3.5 6.1 0.00 0.00 0.00 51 1008.0
20260503050404 59 227 3.5 6.1 0.00 0.00 0.00 51 1008.0
20260503050307 59 207 3.5 6.1 0.00 0.00 0.00 51 1008.0
20260503050215 59 207 3.5 6.1 0.00 0.00 0.00 51 1008.1
20260503050119 59 207 3.5 6.1 0.00 0.00 0.00 51 1008.1
20260503050014 59 202 3.5 6.1 0.00 0.00 0.00 51 1008.1
20260503045919 59 219 3.5 6.1 0.00 0.00 0.00 51 1008.1
20260503045842 59 217 3.5 6.1 0.00 0.00 0.00 51 1008.1
20260503045705 59 197 2.6 7.8 0.00 0.00 0.00 51 1008.1
20260503045613 59 216 2.6 7.8 0.00 0.00 0.00 51 1008.1
20260503045517 59 213 2.6 7.8 0.00 0.00 0.00 51 1008.1
20260503045422 59 213 2.6 7.8 0.00 0.00 0.00 51 1008.2
20260503045326 59 223 2.6 7.8 0.00 0.00 0.00 51 1008.1
20260503045250 59 217 3.5 7.8 0.00 0.00 0.00 51 1008.1
20260503045106 59 244 3.5 7.8 0.00 0.00 0.00 51 1008.2
20260503045009 59 243 4.3 7.8 0.00 0.00 0.00 51 1008.2
20260503044918 59 207 4.3 7.8 0.00 0.00 0.00 50 1008.2
20260503044822 59 229 5.2 7.8 0.00 0.00 0.00 51 1008.2
20260503044726 59 227 4.3 7.0 0.00 0.00 0.00 50 1008.2
20260503044609 59 198 3.5 7.0 0.00 0.00 0.00 51 1008.2
20260503044513 59 206 3.5 7.0 0.00 0.00 0.00 50 1008.1
20260503044418 59 212 3.5 7.0 0.00 0.00 0.00 51 1008.1
20260503044326 59 192 3.5 7.0 0.00 0.00 0.00 51 1008.2
20260503044228 59 188 4.3 7.0 0.00 0.00 0.00 50 1008.2
20260503044132 59 212 4.3 7.0 0.00 0.00 0.00 50 1008.2
20260503044014 59 235 3.5 7.0 0.00 0.00 0.00 50 1008.2
20260503043919 59 213 3.5 7.0 0.00 0.00 0.00 50 1008.3
20260503043803 59 217 3.5 7.0 0.00 0.00 0.00 50 1008.3
20260503043707 59 211 2.6 7.0 0.00 0.00 0.00 51 1008.3
20260503043615 59 209 3.5 7.0 0.00 0.00 0.00 50 1008.3
20260503043520 59 210 4.3 7.0 0.00 0.00 0.00 50 1008.3
20260503043405 59 182 3.5 6.1 0.00 0.00 0.00 50 1008.3
20260503043309 59 194 3.5 6.1 0.00 0.00 0.00 50 1008.3
20260503043212 59 209 3.5 6.1 0.00 0.00 0.00 50 1008.3
20260503043115 60 217 3.5 7.0 0.00 0.00 0.00 50 1008.3
20260503043004 60 211 3.5 7.0 0.00 0.00 0.00 50 1008.4
20260503042908 60 211 3.5 7.0 0.00 0.00 0.00 50 1008.4
20260503042812 60 205 4.3 7.0 0.00 0.00 0.00 50 1008.4
20260503042716 60 240 4.3 7.0 0.00 0.00 0.00 50 1008.4
20260503042622 60 223 3.5 7.0 0.00 0.00 0.00 50 1008.4
20260503042507 60 211 3.5 7.0 0.00 0.00 0.00 50 1008.5
20260503042417 60 210 3.5 7.0 0.00 0.00 0.00 50 1008.4
20260503042322 60 203 3.5 7.0 0.00 0.00 0.00 50 1008.4
20260503042207 60 204 4.3 6.1 0.00 0.00 0.00 50 1008.5
20260503042111 60 199 4.3 6.1 0.00 0.00 0.00 50 1008.5
20260503042017 60 193 3.5 6.1 0.00 0.00 0.00 50 1008.4
20260503041907 60 215 2.6 6.1 0.00 0.00 0.00 51 1008.5
20260503041811 60 225 3.5 6.1 0.00 0.00 0.00 50 1008.5
20260503041717 59 223 3.5 6.1 0.00 0.00 0.00 50 1008.6
20260503041603 59 219 3.5 6.1 0.00 0.00 0.00 50 1008.5
20260503041509 60 222 3.5 6.1 0.00 0.00 0.00 50 1008.6
20260503041414 59 221 2.6 5.2 0.00 0.00 0.00 50 1008.6
20260503041304 59 212 2.6 5.2 0.00 0.00 0.00 51 1008.6
20260503041208 59 213 3.5 5.2 0.00 0.00 0.00 51 1008.6
20260503041113 59 213 3.5 5.2 0.00 0.00 0.00 50 1008.6
20260503041037 59 221 3.5 5.2 0.00 0.00 0.00 50 1008.5
20260503040921 59 211 3.5 6.1 0.00 0.00 0.00 50 1008.7
20260503040806 59 214 3.5 6.1 0.00 0.00 0.00 50 1008.7
20260503040715 59 209 3.5 6.1 0.00 0.00 0.00 50 1008.6
20260503040618 59 207 2.6 6.1 0.00 0.00 0.00 50 1008.6
20260503040522 59 202 2.6 6.1 0.00 0.00 0.00 51 1008.6
20260503040406 60 207 3.5 6.1 0.00 0.00 0.00 51 1008.6
20260503040329 59 207 3.5 6.1 0.00 0.00 0.00 50 1008.7
20260503040206 59 220 3.5 6.1 0.00 0.00 0.00 50 1008.7
20260503040115 59 217 3.5 6.1 0.00 0.00 0.00 50 1008.7
20260503040019 59 221 3.5 6.1 0.00 0.00 0.00 51 1008.7
20260503035904 59 207 3.5 6.1 0.00 0.00 0.00 51 1008.8
20260503035807 59 215 3.5 6.1 0.00 0.00 0.00 51 1008.7
20260503035712 59 198 3.5 6.1 0.00 0.00 0.00 51 1008.8
20260503035616 59 197 3.5 6.1 0.00 0.00 0.00 51 1008.8
20260503035540 59 195 3.5 6.1 0.00 0.00 0.00 51 1008.8
20260503035407 59 230 3.5 6.1 0.00 0.00 0.00 51 1008.8
20260503035311 59 198 2.6 6.1 0.00 0.00 0.00 51 1008.8
20260503035234 59 209 3.5 6.1 0.00 0.00 0.00 52 1008.8
20260503035117 59 209 2.6 6.1 0.00 0.00 0.00 52 1008.9
20260503035021 59 228 2.6 6.1 0.00 0.00 0.00 52 1009.0
20260503034944 59 219 1.7 6.1 0.00 0.00 0.00 52 1009.0
20260503034811 59 219 1.7 6.1 0.00 0.00 0.00 52 1009.0
20260503034735 59 219 2.6 6.1 0.00 0.00 0.00 52 1009.1
20260503034618 59 219 2.6 6.1 0.00 0.00 0.00 51 1009.1
20260503034521 59 204 2.6 5.2 0.00 0.00 0.00 52 1009.0
20260503034405 59 203 3.5 5.2 0.00 0.00 0.00 52 1009.0
20260503034309 59 202 3.5 5.2 0.00 0.00 0.00 52 1009.0
20260503034212 59 204 3.5 5.2 0.00 0.00 0.00 52 1009.0
20260503034139 59 211 2.6 5.2 0.00 0.00 0.00 52 1009.0
20260503034042 59 202 2.6 5.2 0.00 0.00 0.00 52 1009.1
20260503033925 59 208 2.6 5.2 0.00 0.00 0.00 51 1009.1
20260503033828 59 208 2.6 5.2 0.00 0.00 0.00 51 1009.2
20260503033706 60 211 3.5 5.2 0.00 0.00 0.00 52 1009.1
20260503033629 60 211 3.5 5.2 0.00 0.00 0.00 52 1009.2
20260503033511 60 220 2.6 5.2 0.00 0.00 0.00 51 1009.2
20260503033435 60 200 2.6 4.3 0.00 0.00 0.00 52 1009.2
20260503033323 60 198 2.6 6.1 0.00 0.00 0.00 52 1009.1
20260503033207 60 198 2.6 6.1 0.00 0.00 0.00 51 1009.2
20260503033111 60 198 2.6 6.1 0.00 0.00 0.00 51 1009.4
20260503033014 60 198 1.7 6.1 0.00 0.00 0.00 51 1009.3
20260503032919 60 198 2.6 7.0 0.00 0.00 0.00 50 1009.4
20260503032823 60 198 2.6 7.0 0.00 0.00 0.00 51 1009.4
20260503032731 60 197 2.6 7.0 0.00 0.00 0.00 51 1009.4
20260503032614 60 197 2.6 7.0 0.00 0.00 0.00 50 1009.4
20260503032537 60 198 3.5 7.0 0.00 0.00 0.00 50 1009.4
20260503032420 60 203 2.6 7.0 0.00 0.00 0.00 50 1009.4
20260503032304 60 200 3.5 7.0 0.00 0.00 0.00 50 1009.5
20260503032229 60 212 4.3 7.0 0.00 0.00 0.00 50 1009.5
20260503032106 60 205 4.3 7.0 0.00 0.00 0.00 50 1009.4
20260503032012 60 175 3.5 4.3 0.00 0.00 0.00 50 1009.4
20260503031916 60 184 3.5 4.3 0.00 0.00 0.00 49 1009.5
20260503031819 60 194 3.5 4.3 0.00 0.00 0.00 49 1009.5
20260503031705 60 197 2.6 3.5 0.00 0.00 0.00 49 1009.7
20260503031609 60 217 1.7 3.5 0.00 0.00 0.00 49 1009.7
20260503031533 60 219 0.9 2.6 0.00 0.00 0.00 49 1009.8
20260503031420 60 219 0.9 2.6 0.00 0.00 0.00 48 1009.9
20260503031324 60 219 0.9 2.6 0.00 0.00 0.00 49 1009.9
20260503031227 60 219 0.9 2.6 0.00 0.00 0.00 49 1010.0
20260503031104 60 219 0.0 2.6 0.00 0.00 0.00 49 1010.0
20260503031009 60 219 0.9 3.5 0.00 0.00 0.00 49 1010.0
20260503030932 60 219 0.9 3.5 0.00 0.00 0.00 48 1009.9
20260503030815 60 219 1.7 3.5 0.00 0.00 0.00 49 1010.0
20260503030722 60 219 1.7 3.5 0.00 0.00 0.00 49 1010.0
20260503030605 60 219 1.7 3.5 0.00 0.00 0.00 49 1010.0
20260503030529 60 219 1.7 3.5 0.00 0.00 0.00 49 1009.9
20260503030412 60 219 1.7 3.5 0.00 0.00 0.00 48 1010.0
20260503030315 60 219 1.7 3.5 0.00 0.00 0.00 48 1010.0
20260503030219 60 219 1.7 3.5 0.00 0.00 0.00 49 1010.0
20260503030127 60 219 1.7 3.5 0.00 0.00 0.00 49 1010.0
20260503030009 60 219 1.7 3.5 0.00 0.00 0.00 49 1010.0
20260503025913 60 219 1.7 3.5 0.00 0.00 0.00 49 1010.0
20260503025818 60 219 1.7 3.5 0.00 0.00 0.00 49 1010.0
20260503025722 60 217 0.9 3.5 0.00 0.00 0.00 49 1010.0
20260503025606 60 217 1.7 4.3 0.00 0.00 0.00 49 1010.0
20260503025529 60 217 1.7 4.3 0.00 0.00 0.00 49 1010.1
20260503025415 60 217 1.7 4.3 0.00 0.00 0.00 48 1010.2
20260503025319 60 217 1.7 4.3 0.00 0.00 0.00 48 1010.2
20260503025243 60 217 2.6 4.3 0.00 0.00 0.00 48 1010.2
20260503025107 60 217 2.6 4.3 0.00 0.00 0.00 49 1010.3
20260503025032 60 216 2.6 4.3 0.00 0.00 0.00 48 1010.3
20260503024917 60 215 2.6 4.3 0.00 0.00 0.00 48 1010.3
20260503024806 60 215 3.5 4.3 0.00 0.00 0.00 48 1010.4
20260503024731 60 236 3.5 4.3 0.00 0.00 0.00 48 1010.4
20260503024615 60 235 2.6 4.3 0.00 0.00 0.00 49 1010.5
20260503024519 60 248 2.6 4.3 0.00 0.00 0.00 49 1010.4
20260503024406 60 250 2.6 4.3 0.00 0.00 0.00 48 1010.5
20260503024330 60 250 1.7 4.3 0.00 0.00 0.00 48 1010.6
20260503024205 61 249 1.7 4.3 0.00 0.00 0.00 49 1010.6
20260503024134 61 249 1.7 4.3 0.00 0.00 0.00 48 1010.5
20260503024037 61 249 2.6 4.3 0.00 0.00 0.00 48 1010.6
20260503023919 61 249 2.6 4.3 0.00 0.00 0.00 47 1010.6
20260503023823 61 249 2.6 4.3 0.00 0.00 0.00 48 1010.6
20260503023727 61 238 2.6 4.3 0.00 0.00 0.00 48 1010.6
20260503023604 61 238 2.6 6.1 0.00 0.00 0.00 47 1010.6
20260503023528 61 254 2.6 7.0 0.00 0.00 0.00 48 1010.6
20260503023431 61 255 2.6 7.0 0.00 0.00 0.00 48 1010.6
20260503023338 61 255 2.6 7.0 0.00 0.00 0.00 48 1010.6
20260503023220 61 259 3.5 7.0 0.00 0.00 0.00 48 1010.6
20260503023106 61 270 3.5 7.0 0.00 0.00 0.00 47 1010.6
20260503023030 61 263 2.6 7.0 0.00 0.00 0.00 48 1010.6
20260503022913 61 254 2.6 7.0 0.00 0.00 0.00 48 1010.6
20260503022837 61 254 2.6 7.0 0.00 0.00 0.00 48 1010.6
20260503022740 61 294 2.6 7.0 0.00 0.00 0.00 48 1010.6
20260503022642 61 244 1.7 6.1 0.00 0.00 0.00 48 1010.6
20260503022508 61 244 1.7 6.1 0.00 0.00 0.00 47 1010.7
20260503022411 61 265 1.7 6.1 0.00 0.00 0.00 47 1010.6
20260503022316 61 271 2.6 7.0 0.00 0.00 0.00 47 1010.6
20260503022220 61 271 2.6 9.6 0.00 0.00 0.00 47 1010.7
20260503022123 61 277 2.6 9.6 0.00 0.00 0.00 47 1010.7
20260503022027 61 251 2.6 9.6 0.00 0.00 0.00 47 1010.7
20260503021914 61 263 2.6 9.6 0.00 0.00 0.00 47 1010.7
20260503021817 61 245 2.6 9.6 0.00 0.00 0.00 47 1010.7
20260503021721 61 268 2.6 9.6 0.00 0.00 0.00 47 1010.7
20260503021604 61 257 4.3 9.6 0.00 0.00 0.00 48 1010.7
20260503021529 61 274 6.1 9.6 0.00 0.00 0.00 48 1010.7
20260503021405 61 263 5.2 9.6 0.00 0.00 0.00 47 1010.7
20260503021312 61 254 3.5 9.6 0.00 0.00 0.00 46 1010.8
20260503021217 61 259 3.5 12.2 0.00 0.00 0.00 47 1010.8
20260503021121 61 261 2.6 17.4 0.00 0.00 0.00 47 1010.8
20260503021005 61 246 2.6 18.2 0.00 0.00 0.00 47 1010.8
20260503020907 62 242 3.5 18.2 0.00 0.00 0.00 47 1010.8
20260503020812 62 281 4.3 18.2 0.00 0.00 0.00 46 1010.9
20260503020720 62 289 5.2 18.2 0.00 0.00 0.00 47 1010.9
20260503020643 62 313 6.1 18.2 0.00 0.00 0.00 46 1011.0
20260503020505 62 306 9.6 18.2 0.00 0.00 0.00 46 1011.1
20260503020430 62 314 11.3 18.2 0.00 0.00 0.00 46 1011.1
20260503020306 62 300 11.3 18.2 0.00 0.00 0.00 45 1011.1
20260503020210 62 275 7.8 18.2 0.00 0.00 0.00 45 1011.1
20260503020112 62 290 6.1 12.2 0.00 0.00 0.00 45 1011.1
20260503020020 62 262 5.2 12.2 0.00 0.00 0.00 44 1011.1
20260503015924 62 308 5.2 12.2 0.00 0.00 0.00 45 1011.1
20260503015807 62 294 6.1 12.2 0.00 0.00 0.00 44 1011.1
20260503015708 62 338 5.2 12.2 0.00 0.00 0.00 44 1011.1
20260503015612 62 294 6.1 12.2 0.00 0.00 0.00 44 1011.0
20260503015536 62 321 7.8 12.2 0.00 0.00 0.00 45 1011.1
20260503015403 62 333 7.8 12.2 0.00 0.00 0.00 44 1011.1
20260503015308 62 315 8.7 12.2 0.00 0.00 0.00 43 1011.0
20260503015210 62 304 9.6 16.5 0.00 0.00 0.00 45 1011.0
20260503015115 62 295 8.7 16.5 0.00 0.00 0.00 44 1010.9
20260503015018 62 311 7.8 16.5 0.00 0.00 0.00 44 1011.0
20260503014922 62 301 8.7 16.5 0.00 0.00 0.00 44 1011.0
20260503014829 62 311 10.4 16.5 0.00 0.00 0.00 44 1010.9
20260503014705 62 292 10.4 16.5 0.00 0.00 0.00 43 1011.0
20260503014608 62 286 9.6 16.5 0.00 0.00 0.00 43 1010.9
20260503014531 63 309 11.3 16.5 0.00 0.00 0.00 43 1010.9
20260503014413 63 294 12.2 16.5 0.00 0.00 0.00 43 1010.9
20260503014337 63 300 11.3 16.5 0.00 0.00 0.00 43 1010.9
20260503014219 63 309 10.4 16.5 0.00 0.00 0.00 42 1010.9
20260503014126 63 281 10.4 16.5 0.00 0.00 0.00 43 1010.9
20260503014049 63 280 11.3 16.5 0.00 0.00 0.00 43 1010.8
20260503013905 63 291 12.2 16.5 0.00 0.00 0.00 43 1010.9
20260503013808 63 285 11.3 16.5 0.00 0.00 0.00 43 1010.9
20260503013732 63 300 10.4 15.6 0.00 0.00 0.00 43 1010.9
20260503013635 63 292 10.4 15.6 0.00 0.00 0.00 43 1010.8
20260503013517 63 302 11.3 15.6 0.00 0.00 0.00 43 1010.7
20260503013405 63 293 11.3 16.5 0.00 0.00 0.00 43 1010.8
20260503013307 63 307 9.6 16.5 0.00 0.00 0.00 43 1010.8
20260503013209 63 295 7.8 16.5 0.00 0.00 0.00 43 1010.8
20260503013112 63 318 8.7 16.5 0.00 0.00 0.00 43 1010.8
20260503013016 63 279 8.7 16.5 0.00 0.00 0.00 43 1010.8
20260503012918 63 312 7.8 16.5 0.00 0.00 0.00 43 1010.8
20260503012806 63 279 7.8 16.5 0.00 0.00 0.00 43 1010.8
20260503012728 63 300 10.4 16.5 0.00 0.00 0.00 43 1010.8
20260503012604 62 273 12.2 16.5 0.00 0.00 0.00 42 1010.7
20260503012507 62 279 12.2 14.8 0.00 0.00 0.00 43 1010.8
20260503012430 62 293 10.4 14.8 0.00 0.00 0.00 43 1010.8
20260503012313 62 277 7.0 14.8 0.00 0.00 0.00 44 1010.7
20260503012215 62 306 5.2 9.6 0.00 0.00 0.00 45 1010.8
20260503012139 62 298 6.1 8.7 0.00 0.00 0.00 45 1010.8
20260503012004 62 284 7.0 8.7 0.00 0.00 0.00 44 1010.7
20260503011906 62 293 6.1 8.7 0.00 0.00 0.00 45 1010.7
20260503011831 62 299 5.2 8.7 0.00 0.00 0.00 46 1010.8
20260503011712 62 284 6.1 8.7 0.00 0.00 0.00 45 1010.8
20260503011615 62 292 6.1 8.7 0.00 0.00 0.00 45 1010.7
20260503011517 62 291 5.2 8.7 0.00 0.00 0.00 44 1010.7
20260503011403 62 281 4.3 8.7 0.00 0.00 0.00 46 1010.8
20260503011308 62 292 6.1 8.7 0.00 0.00 0.00 46 1010.7
20260503011210 62 277 6.1 8.7 0.00 0.00 0.00 44 1010.7
20260503011113 62 298 6.1 7.8 0.00 0.00 0.00 45 1010.8
20260503011015 63 286 7.0 7.8 0.00 0.00 0.00 45 1010.8
20260503010939 63 299 5.2 7.8 0.00 0.00 0.00 44 1010.7
20260503010822 63 308 3.5 8.7 0.00 0.00 0.00 45 1010.8
20260503010730 63 298 3.5 8.7 0.00 0.00 0.00 44 1010.7
20260503010605 63 276 3.5 8.7 0.00 0.00 0.00 45 1010.7
20260503010510 63 261 2.6 8.7 0.00 0.00 0.00 45 1010.7
20260503010434 63 267 2.6 8.7 0.00 0.00 0.00 45 1010.8
20260503010316 63 246 3.5 8.7 0.00 0.00 0.00 45 1010.7
20260503010220 63 290 4.3 8.7 0.00 0.00 0.00 45 1010.7
20260503010106 63 306 4.3 8.7 0.00 0.00 0.00 43 1010.8
20260503010030 63 286 4.3 8.7 0.00 0.00 0.00 43 1010.7
20260503005905 63 265 3.5 7.0 0.00 0.00 0.00 44 1010.8
20260503005810 63 279 3.5 7.0 0.00 0.00 0.00 44 1010.8
20260503005712 63 266 4.3 7.0 0.00 0.00 0.00 44 1010.7
20260503005616 63 266 3.5 7.8 0.00 0.00 0.00 43 1010.7
20260503005540 63 284 3.5 7.8 0.00 0.00 0.00 45 1010.8
20260503005404 63 274 3.5 7.8 0.00 0.00 0.00 43 1010.8
20260503005327 63 264 3.5 7.8 0.00 0.00 0.00 43 1010.7
20260503005203 63 255 2.6 7.8 0.00 0.00 0.00 44 1010.8
20260503005128 63 255 3.5 7.8 0.00 0.00 0.00 44 1010.8
20260503005006 63 261 4.3 8.7 0.00 0.00 0.00 44 1010.8
20260503004909 63 293 5.2 8.7 0.00 0.00 0.00 43 1010.8
20260503004818 63 261 5.2 8.7 0.00 0.00 0.00 43 1010.8
20260503004743 63 278 4.3 8.7 0.00 0.00 0.00 44 1010.8
20260503004626 63 281 3.5 8.7 0.00 0.00 0.00 44 1010.8
20260503004504 63 256 4.3 8.7 0.00 0.00 0.00 43 1010.8
20260503004406 63 281 5.2 8.7 0.00 0.00 0.00 44 1010.8
20260503004331 63 269 6.1 8.7 0.00 0.00 0.00 44 1010.9
20260503004216 63 290 5.2 8.7 0.00 0.00 0.00 45 1010.8
20260503004139 63 275 4.3 8.7 0.00 0.00 0.00 46 1010.9
20260503004027 63 329 4.3 8.7 0.00 0.00 0.00 45 1010.8
20260503003910 63 282 3.5 8.7 0.00 0.00 0.00 44 1010.9
20260503003814 63 297 2.6 8.7 0.00 0.00 0.00 44 1010.8
20260503003719 63 293 2.6 8.7 0.00 0.00 0.00 44 1010.8
20260503003604 63 251 2.6 8.7 0.00 0.00 0.00 43 1010.8
20260503003510 63 251 2.6 8.7 0.00 0.00 0.00 43 1010.8
20260503003417 63 253 5.2 8.7 0.00 0.00 0.00 43 1010.7
20260503003322 63 273 6.1 8.7 0.00 0.00 0.00 44 1010.8
20260503003226 63 279 3.5 7.0 0.00 0.00 0.00 43 1010.8
20260503003110 63 264 3.5 9.6 0.00 0.00 0.00 43 1010.8
20260503003014 63 264 3.5 9.6 0.00 0.00 0.00 43 1010.8
20260503002919 63 271 5.2 9.6 0.00 0.00 0.00 43 1010.8
20260503002827 63 263 5.2 9.6 0.00 0.00 0.00 43 1010.8
20260503002703 63 300 2.6 9.6 0.00 0.00 0.00 45 1010.9
20260503002627 63 294 2.6 9.6 0.00 0.00 0.00 45 1010.9
20260503002511 63 279 4.3 9.6 0.00 0.00 0.00 43 1010.9
20260503002436 63 281 6.1 9.6 0.00 0.00 0.00 44 1011.0
20260503002319 63 255 6.1 9.6 0.00 0.00 0.00 43 1011.0
20260503002222 63 281 3.5 8.7 0.00 0.00 0.00 45 1010.9
20260503002131 63 284 1.7 7.0 0.00 0.00 0.00 46 1011.0
20260503002008 63 285 3.5 7.0 0.00 0.00 0.00 45 1011.0
20260503001931 63 298 4.3 7.0 0.00 0.00 0.00 45 1011.0
20260503001804 64 286 4.3 7.0 0.00 0.00 0.00 45 1011.0
20260503001728 64 345 3.5 7.0 0.00 0.00 0.00 45 1011.0
20260503001652 64 293 4.3 7.0 0.00 0.00 0.00 46 1011.0
20260503001506 64 298 3.5 7.0 0.00 0.00 0.00 45 1010.9
20260503001414 64 294 2.6 7.0 0.00 0.00 0.00 46 1011.0
20260503001318 64 290 2.6 7.0 0.00 0.00 0.00 45 1010.9
20260503001222 64 305 3.5 7.0 0.00 0.00 0.00 43 1011.0
20260503001127 64 345 4.3 7.8 0.00 0.00 0.00 42 1011.0
20260503001009 64 318 4.3 8.7 0.00 0.00 0.00 42 1011.0
20260503000933 64 5 4.3 8.7 0.00 0.00 0.00 42 1011.0
20260503000816 64 302 4.3 9.6 0.00 0.00 0.00 45 1011.0
20260503000704 64 306 4.3 11.3 0.00 0.00 0.00 42 1011.0
20260503000608 64 296 4.3 12.2 0.00 0.00 0.00 43 1011.1
20260503000532 64 320 5.2 12.2 0.00 0.00 0.00 42 1011.1
20260503000437 64 309 5.2 12.2 0.00 0.00 0.00 42 1011.1
20260503000320 64 338 6.1 12.2 0.00 0.00 0.00 43 1011.0
20260503000223 64 297 6.1 12.2 0.00 0.00 0.00 43 1011.1
20260503000111 64 308 7.0 12.2 0.00 0.00 0.00 42 1011.1
20260503000015 64 290 7.0 12.2 0.00 0.00 0.00 41 1011.0
20260502235918 64 308 7.8 12.2 0.00 0.00 0.00 42 1011.2
20260502235843 64 323 8.7 12.2 0.00 0.00 0.00 42 1011.1
20260502235727 64 321 7.8 10.4 0.00 0.00 0.00 41 1011.1
20260502235604 64 321 7.0 10.4 0.00 0.00 0.00 40 1011.2
20260502235507 64 315 7.0 10.4 0.00 0.00 0.00 41 1011.1
20260502235416 64 284 5.2 10.4 0.00 0.00 0.00 43 1011.3
20260502235321 64 294 4.3 10.4 0.00 0.00 0.00 42 1011.2
20260502235226 64 292 5.2 11.3 0.00 0.00 0.00 41 1011.2
20260502235108 64 345 6.1 11.3 0.00 0.00 0.00 41 1011.2
20260502235011 64 318 6.1 11.3 0.00 0.00 0.00 42 1011.2
20260502234935 64 317 3.5 11.3 0.00 0.00 0.00 41 1011.2
20260502234839 64 296 3.5 11.3 0.00 0.00 0.00 40 1011.2
20260502234706 64 347 5.2 11.3 0.00 0.00 0.00 40 1011.2
20260502234630 64 346 6.1 11.3 0.00 0.00 0.00 41 1011.2
20260502234507 64 286 7.8 12.2 0.00 0.00 0.00 40 1011.2
20260502234411 64 252 5.2 12.2 0.00 0.00 0.00 40 1011.2
20260502234335 64 256 3.5 13.0 0.00 0.00 0.00 40 1011.1
20260502234216 64 346 4.3 13.0 0.00 0.00 0.00 40 1011.1
20260502234105 64 263 4.3 15.6 0.00 0.00 0.00 41 1011.2
20260502234028 64 292 4.3 15.6 0.00 0.00 0.00 40 1011.2
20260502233905 64 275 6.1 15.6 0.00 0.00 0.00 41 1011.1
20260502233809 64 270 7.8 15.6 0.00 0.00 0.00 40 1011.1
20260502233714 64 277 8.7 15.6 0.00 0.00 0.00 39 1011.1
20260502233619 64 275 8.7 15.6 0.00 0.00 0.00 39 1011.1
20260502233507 64 279 9.6 15.6 0.00 0.00 0.00 40 1011.2
20260502233409 64 287 10.4 15.6 0.00 0.00 0.00 40 1011.1
20260502233334 64 346 8.7 15.6 0.00 0.00 0.00 39 1011.1
20260502233216 64 351 4.3 12.2 0.00 0.00 0.00 42 1011.2
20260502233141 64 335 2.6 11.3 0.00 0.00 0.00 41 1011.2
20260502233024 64 278 4.3 11.3 0.00 0.00 0.00 40 1011.2
20260502232909 64 263 6.1 11.3 0.00 0.00 0.00 41 1011.4
20260502232812 64 290 5.2 11.3 0.00 0.00 0.00 40 1011.4
20260502232720 64 296 5.2 11.3 0.00 0.00 0.00 41 1011.4
20260502232625 64 291 7.0 11.3 0.00 0.00 0.00 41 1011.3
20260502232509 64 300 7.0 11.3 0.00 0.00 0.00 43 1011.3
20260502232413 64 310 7.0 11.3 0.00 0.00 0.00 39 1011.3
20260502232319 64 242 7.0 11.3 0.00 0.00 0.00 39 1011.2
20260502232221 64 235 5.2 10.4 0.00 0.00 0.00 39 1011.4
20260502232128 64 286 7.0 10.4 0.00 0.00 0.00 42 1011.4
20260502232012 64 290 7.0 10.4 0.00 0.00 0.00 41 1011.4
20260502231917 64 298 7.0 10.4 0.00 0.00 0.00 39 1011.4
20260502231841 64 291 7.0 10.4 0.00 0.00 0.00 40 1011.4
20260502231704 64 306 7.0 11.3 0.00 0.00 0.00 43 1011.4
20260502231608 64 311 6.1 11.3 0.00 0.00 0.00 42 1011.4
20260502231513 64 272 6.1 11.3 0.00 0.00 0.00 42 1011.4
20260502231420 64 283 4.3 11.3 0.00 0.00 0.00 42 1011.4
20260502231305 64 319 4.3 13.0 0.00 0.00 0.00 41 1011.4
20260502231228 64 279 4.3 13.0 0.00 0.00 0.00 39 1011.4
20260502231104 64 250 7.0 13.0 0.00 0.00 0.00 39 1011.4
20260502231007 64 340 7.8 13.0 0.00 0.00 0.00 40 1011.4
20260502230912 64 318 8.7 13.0 0.00 0.00 0.00 42 1011.4
20260502230820 64 294 8.7 13.0 0.00 0.00 0.00 41 1011.4
20260502230705 64 294 7.8 13.0 0.00 0.00 0.00 41 1011.5
20260502230608 64 284 8.7 13.0 0.00 0.00 0.00 40 1011.4
20260502230511 64 284 7.0 13.0 0.00 0.00 0.00 40 1011.5
20260502230414 64 212 4.3 10.4 0.00 0.00 0.00 40 1011.6
20260502230316 64 279 1.7 6.1 0.00 0.00 0.00 42 1011.6
20260502230222 64 279 1.7 7.8 0.00 0.00 0.00 41 1011.6
20260502230108 64 279 0.9 7.8 0.00 0.00 0.00 41 1011.6
20260502230031 64 279 1.7 7.8 0.00 0.00 0.00 41 1011.6
20260502225906 64 280 2.6 7.8 0.00 0.00 0.00 41 1011.6
20260502225809 64 306 3.5 7.8 0.00 0.00 0.00 41 1011.7
20260502225714 64 273 4.3 7.8 0.00 0.00 0.00 41 1011.7
20260502225617 64 295 4.3 7.8 0.00 0.00 0.00 41 1011.8
20260502225506 64 278 4.3 7.8 0.00 0.00 0.00 40 1011.8
20260502225430 64 273 4.3 7.8 0.00 0.00 0.00 40 1011.7
20260502225306 64 285 3.5 7.0 0.00 0.00 0.00 44 1011.7
20260502225212 64 294 4.3 8.7 0.00 0.00 0.00 42 1011.7
20260502225114 64 301 4.3 9.6 0.00 0.00 0.00 40 1011.7
20260502225018 64 292 3.5 9.6 0.00 0.00 0.00 41 1011.7
20260502224926 64 292 4.3 9.6 0.00 0.00 0.00 40 1011.7
20260502224827 64 331 4.3 9.6 0.00 0.00 0.00 40 1011.7
20260502224752 64 286 4.3 9.6 0.00 0.00 0.00 40 1011.6
20260502224607 64 287 4.3 9.6 0.00 0.00 0.00 42 1011.7
20260502224512 64 300 5.2 9.6 0.00 0.00 0.00 40 1011.7
20260502224416 64 282 5.2 9.6 0.00 0.00 0.00 40 1011.7
20260502224321 64 313 5.2 9.6 0.00 0.00 0.00 41 1011.7
20260502224249 64 309 6.1 9.6 0.00 0.00 0.00 40 1011.8
20260502224105 64 288 4.3 8.7 0.00 0.00 0.00 40 1011.9
20260502224006 64 317 3.5 8.7 0.00 0.00 0.00 41 1011.8
20260502223931 64 279 2.6 8.7 0.00 0.00 0.00 41 1011.8
20260502223810 64 305 2.6 13.0 0.00 0.00 0.00 41 1011.9
20260502223712 64 331 3.5 13.9 0.00 0.00 0.00 40 1011.8
20260502223636 64 342 4.3 13.9 0.00 0.00 0.00 40 1011.8
20260502223517 64 350 5.2 13.9 0.00 0.00 0.00 40 1011.8
20260502223404 64 285 5.2 13.9 0.00 0.00 0.00 40 1011.8
20260502223307 64 301 5.2 13.9 0.00 0.00 0.00 41 1011.9
20260502223212 64 335 6.1 13.9 0.00 0.00 0.00 39 1011.8
20260502223115 64 317 7.8 13.9 0.00 0.00 0.00 41 1011.9
20260502223020 64 299 8.7 13.9 0.00 0.00 0.00 40 1011.8
20260502222944 64 290 8.7 13.9 0.00 0.00 0.00 39 1011.8
20260502222807 64 293 7.8 13.0 0.00 0.00 0.00 40 1011.9
20260502222712 64 316 7.0 13.0 0.00 0.00 0.00 40 1011.9
20260502222616 64 313 6.1 13.0 0.00 0.00 0.00 40 1011.9
20260502222541 64 297 7.8 13.0 0.00 0.00 0.00 40 1011.9
20260502222404 64 294 9.6 13.0 0.00 0.00 0.00 38 1011.8
20260502222328 64 306 8.7 13.0 0.00 0.00 0.00 39 1011.9
20260502222205 64 294 9.6 13.0 0.00 0.00 0.00 40 1011.9
20260502222112 64 309 9.6 13.0 0.00 0.00 0.00 40 1011.9
20260502222016 64 296 8.7 11.3 0.00 0.00 0.00 39 1011.9
20260502221920 64 290 7.0 11.3 0.00 0.00 0.00 40 1011.9
20260502221823 64 291 6.1 10.4 0.00 0.00 0.00 40 1011.9
20260502221747 64 303 7.0 10.4 0.00 0.00 0.00 39 1011.9
20260502221603 64 273 7.0 13.0 0.00 0.00 0.00 40 1011.9
20260502221511 64 278 7.8 13.0 0.00 0.00 0.00 39 1011.8
20260502221436 64 283 7.0 13.0 0.00 0.00 0.00 39 1011.8
20260502221319 64 304 6.1 13.0 0.00 0.00 0.00 40 1011.9
20260502221204 64 306 7.0 13.0 0.00 0.00 0.00 40 1011.8
20260502221127 64 292 5.2 13.0 0.00 0.00 0.00 41 1011.9
20260502221030 64 336 6.1 13.0 0.00 0.00 0.00 40 1011.9
20260502220914 64 310 7.8 13.0 0.00 0.00 0.00 39 1011.9
20260502220819 64 298 9.6 13.0 0.00 0.00 0.00 38 1011.9
20260502220727 64 296 9.6 13.0 0.00 0.00 0.00 39 1011.9
20260502220629 64 288 9.6 12.2 0.00 0.00 0.00 38 1011.9
20260502220507 64 286 8.7 12.2 0.00 0.00 0.00 40 1011.9
20260502220409 64 309 7.8 12.2 0.00 0.00 0.00 39 1011.9
20260502220314 64 273 8.7 12.2 0.00 0.00 0.00 40 1011.9
20260502220217 65 292 8.7 12.2 0.00 0.00 0.00 39 1012.0
20260502220104 65 302 7.0 11.3 0.00 0.00 0.00 41 1012.0
20260502220008 65 269 7.0 11.3 0.00 0.00 0.00 39 1012.0
20260502215932 65 292 5.2 11.3 0.00 0.00 0.00 40 1012.0
20260502215817 65 291 6.1 11.3 0.00 0.00 0.00 39 1012.0
20260502215719 65 294 7.8 11.3 0.00 0.00 0.00 40 1012.0
20260502215622 65 269 7.8 11.3 0.00 0.00 0.00 39 1012.0
20260502215509 65 294 7.0 11.3 0.00 0.00 0.00 39 1011.9
20260502215433 65 304 7.0 11.3 0.00 0.00 0.00 39 1012.1
20260502215336 65 298 6.1 12.2 0.00 0.00 0.00 41 1012.0
20260502215240 65 318 6.1 12.2 0.00 0.00 0.00 40 1012.0
20260502215104 65 279 6.1 12.2 0.00 0.00 0.00 39 1012.1
20260502215007 65 308 6.1 12.2 0.00 0.00 0.00 41 1012.1
20260502214912 65 319 7.0 12.2 0.00 0.00 0.00 41 1012.1
20260502214816 65 301 7.0 12.2 0.00 0.00 0.00 41 1012.0
20260502214725 65 312 7.8 12.2 0.00 0.00 0.00 39 1012.1
20260502214650 65 305 8.7 12.2 0.00 0.00 0.00 39 1012.0
20260502214505 65 295 9.6 12.2 0.00 0.00 0.00 40 1012.1
20260502214408 65 294 7.8 12.2 0.00 0.00 0.00 41 1012.1
20260502214331 65 286 7.0 13.9 0.00 0.00 0.00 41 1012.1
20260502214213 65 285 7.8 13.9 0.00 0.00 0.00 41 1012.1
20260502214117 65 318 8.7 15.6 0.00 0.00 0.00 40 1012.2
20260502214025 65 312 7.8 15.6 0.00 0.00 0.00 41 1012.2
20260502213949 65 306 7.8 15.6 0.00 0.00 0.00 39 1012.1
20260502213805 65 297 7.8 15.6 0.00 0.00 0.00 42 1012.1
20260502213710 65 302 7.8 15.6 0.00 0.00 0.00 41 1012.2
20260502213614 64 279 8.7 16.5 0.00 0.00 0.00 39 1012.2
20260502213517 64 302 8.7 16.5 0.00 0.00 0.00 41 1012.2
20260502213426 64 333 10.4 16.5 0.00 0.00 0.00 39 1012.3
20260502213309 64 305 12.2 16.5 0.00 0.00 0.00 40 1012.3
20260502213234 64 295 11.3 16.5 0.00 0.00 0.00 42 1012.3
20260502213117 64 284 10.4 16.5 0.00 0.00 0.00 39 1012.3
20260502213022 64 281 9.6 16.5 0.00 0.00 0.00 38 1012.3
20260502212926 64 303 10.4 16.5 0.00 0.00 0.00 38 1012.3
20260502212803 64 300 10.4 16.5 0.00 0.00 0.00 39 1012.3
20260502212712 65 296 7.8 14.8 0.00 0.00 0.00 39 1012.4
20260502212617 64 286 7.8 14.8 0.00 0.00 0.00 38 1012.5
20260502212520 65 293 7.8 14.8 0.00 0.00 0.00 39 1012.4
20260502212424 65 277 7.0 14.8 0.00 0.00 0.00 38 1012.5
20260502212348 65 280 8.7 14.8 0.00 0.00 0.00 38 1012.5
20260502212204 65 237 7.8 14.8 0.00 0.00 0.00 39 1012.6
20260502212113 65 251 5.2 9.6 0.00 0.00 0.00 41 1012.5
20260502212017 64 259 3.5 9.6 0.00 0.00 0.00 40 1012.5
20260502211921 64 290 3.5 9.6 0.00 0.00 0.00 42 1012.5
20260502211825 64 288 3.5 10.4 0.00 0.00 0.00 40 1012.5
20260502211749 64 321 4.3 10.4 0.00 0.00 0.00 41 1012.6
20260502211603 64 295 4.3 10.4 0.00 0.00 0.00 39 1012.6
20260502211507 64 300 6.1 12.2 0.00 0.00 0.00 39 1012.6
20260502211415 64 292 7.8 12.2 0.00 0.00 0.00 41 1012.6
20260502211319 64 290 7.8 17.4 0.00 0.00 0.00 40 1012.6